User: anonymous   Login
Location: Hartman Creek State Park
(44.3257°N, 89.2134°W)
Time: 17:27:07
(UTC-05:00)
Language:

Cosmos 2263 Rocket - Orbit

View from above orbital plane
View from above orbital plane
View from above satellite
View from above satellite

Ground track
Ground track

The orbit data is extracted from the following two-line orbital elements,

1 22803U 93059B   18109.92743487 -.00000027 +00000-0 +10769-4 0  9991
2 22803 070.9900 323.0612 0019428 277.3390 082.5526 14.16787778271479
Epoch (UTC): 19 April 2018 22:15:30
Eccentricity: 0.0019428
inclination: 70.9900°
perigee height: 822 km
apogee height: 850 km
right ascension of ascending node: 323.0612°
argument of perigee: 277.3390°
revolutions per day: 14.16787778
mean anomaly at epoch: 82.5526°
orbit number at epoch: 27147

The dashed part of the orbit path shows where the satellite is in the earth's shadow,  

DLR